Temperature
20 20 20 20 20 20 19 19 19 19 19 19 19 19 18 18 18 18 18 18 18 17 17 17 17 17 17 17 17 17 17 17 17 17 17 17 17 17 17 17 16 16 16
20 20 19 19 19 19 19 19 19 18 18 18 18 18 18 18 18 18 17 17 17 17 17 17 17 17 17 17 17 17 17 16 16 16 17 17 16 16 16 16 16 16 16
20 20 19 19 19 19 19 18 18 18 18 18 18 18 18 18 17 17 17 17 17 17 17 17 17 17 17 17 16 16 16 16 16 16 16 16 16 16 16 16 16 16 16
20 20 19 19 19 19 18 18 18 18 18 17 17 17 17 17 17 17 17 17 17 16 16 16 16 16 16 16 16 16 16 16 16 16 16 16 16 16 16 16 16 16 16
20 19 19 19 19 18 18 18 17 17 17 17 17 17 17 16 16 16 16 16 16 16 16 16 16 16 16 16 16 16 15 15 15 15 15 15 15 15 15 15 15 15 15
19 19 19 19 18 18 18 17 17 17 17 17 16 16 16 16 16 16 16 16 16 16 16 15 15 15 15 15 15 15 15 15 15 15 15 15 15 15 15 15 15 15 14
19 19 18 18 18 18 17 17 17 16 16 16 16 16 16 16 16 15 15 15 15 15 15 15 15 15 15 15 15 15 15 15 14 14 14 14 15 14 14 14 14 14 14
19 18 18 18 17 17 17 17 16 16 16 16 16 15 15 15 15 15 15 15 15 15 14 14 14 14 14 14 14 14 14 14 14 14 14 14 14 14 14 14 14 14 14
18 18 18 17 17 17 16 16 16 16 16 15 15 15 15 15 15 14 14 14 14 14 14 14 14 14 14 14 14 14 14 14 14 14 13 13 13 14 14 14 14 13 13
18 18 17 17 17 16 16 16 15 15 15 15 15 15 14 14 14 14 14 14 14 14 14 13 13 13 13 13 13 13 13 13 13 13 13 13 13 13 13 13 13 13 13
18 17 17 17 16 16 16 15 15 15 15 14 14 14 14 14 14 14 14 13 13 13 13 13 13 13 13 13 13 13 13 13 13 13 13 13 13 13 13 13 13 12 12
17 17 17 16 16 15 15 15 15 14 14 14 14 14 13 13 13 13 13 13 13 13 13 13 12 12 12 12 12 12 12 12 12 12 12 13 13 13 13 12 12 12 12
16 16 16 16 15 15 15 15 14 14 14 14 13 13 13 13 13 13 13 12 12 12 12 12 12 12 12 12 12 12 12 12 12 12 12 12 12 12 12 12 12 12 12
16 16 15 15 15 15 14 14 14 14 13 13 13 13 13 13 12 12 12 12 12 12 12 12 12 12 12 12 12 12 12 12 12 12 11 11 11 11 11 11 11 11 11
16 15 15 15 14 14 14 14 14 13 13 13 13 13 12 12 12 12 12 12 12 11 11 11 11 11 11 11 11 11 11 11 11 11 11 11 11 11 11 11 11 11 11
16 15 15 14 14 14 14 13 13 13 13 13 13 12 12 12 12 12 12 11 11 11 11 11 11 11 11 11 11 10 10 11 11 10 10 10 10 10 10 10 10 10 10
15 15 14 14 13 13 13 13 13 13 12 12 12 12 12 12 12 11 11 11 11 11 11 10 10 10 10 10 10 10 10 10 10 10 10 10 10 10 10 10 10 9 9
14 14 14 13 13 13 13 13 12 12 12 12 12 12 11 11 11 11 11 11 11 10 10 10 10 10 10 10 10 10 10 9 9 9 9 9 9 9 9 9 9 9 9
14 13 13 13 13 13 12 12 12 12 12 12 12 11 11 11 11 11 11 10 10 10 10 10 10 10 9 9 9 9 9 9 9 9 9 9 9 9 9 8 8 8 8
13 13 13 12 12 12 12 12 12 12 12 11 11 11 11 11 11 10 10 10 10 10 9 9 9 9 9 9 9 9 9 9 9 8 8 8 8 8 8 8 8 8 8
13 12 12 12 12 12 12 11 11 11 11 11 11 11 11 10 10 10 10 10 10 9 9 9 9 9 9 9 8 8 8 8 8 8 8 8 8 8 8 8 8 8 8
12 12 12 11 11 11 11 11 11 11 11 11 11 10 10 10 10 10 10 9 9 9 9 9 9 8 8 8 8 8 8 8 8 8 8 8 8 8 8 7 7 7 7
12 11 11 11 11 11 11 11 11 11 10 10 10 10 10 10 10 10 9 9 9 9 9 8 8 8 8 8 8 7 7 7 7 7 7 7 7 7 7 7 7 7 7
11 11 11 11 11 11 10 10 10 10 10 10 10 10 9 9 9 9 9 9 8 8 8 8 8 8 8 8 8 7 7 7 7 7 7 7 7 7 7 7 7 7 7
11 11 11 10 10 10 10 10 10 10 10 10 9 9 9 9 9 8 8 8 8 8 8 8 7 7 7 7 7 7 7 7 7 7 7 7 7 7 7 7 6 6 6
11 10 10 10 10 10 10 10 9 9 9 9 9 9 8 8 8 8 8 8 8 7 7 7 7 7 7 7 7 7 7 7 7 7 7 7 7 6 6 6 6 6 6
Wind_Speed
5 5 4 3 3 2 3 3 3 2 2 2 2 2 2 2 1 1 1 1 1 1 1 1 2 2 2 2 1 1 1 2 3 4 2 2 1 2 2 4 5 5 6
5 4 4 3 2 2 3 3 2 2 2 2 2 2 2 1 1 1 1 0 0 1 2 1 2 2 2 2 2 2 2 2 3 4 3 2 3 3 2 2 2 3 4
5 5 4 3 3 2 2 2 2 2 1 1 1 1 1 1 1 1 1 1 1 1 2 2 3 2 2 2 2 2 2 2 2 2 3 2 2 1 1 2 1 1 2
6 6 5 5 4 3 2 2 1 2 2 1 1 1 1 1 1 1 1 1 1 1 2 2 2 2 3 3 3 3 2 2 1 1 2 2 2 2 1 2 2 2 2
6 5 5 5 4 3 2 2 1 1 2 1 1 1 1 1 1 1 1 1 1 2 3 3 3 3 3 2 2 2 2 1 2 2 2 2 2 1 2 2 2 2 2
6 5 4 4 3 3 2 2 1 1 1 1 1 1 1 1 2 2 1 1 1 2 3 3 3 2 3 3 4 3 2 2 3 2 2 3 4 3 3 2 1 1 2
5 4 4 4 3 3 2 2 1 1 0 1 1 1 1 2 2 2 2 1 1 2 2 2 3 3 3 3 4 4 4 4 5 4 4 4 4 4 3 2 2 2 3
5 4 3 3 3 3 2 2 2 2 2 2 2 2 2 2 2 2 2 1 1 2 2 2 3 4 3 3 3 3 4 4 4 4 5 5 5 4 4 4 4 3 2
5 4 4 4 3 3 3 3 2 2 2 2 2 2 2 3 2 2 2 1 2 3 3 2 3 4 5 4 2 3 5 6 5 5 5 6 7 6 4 1 1 1 2
5 5 4 4 4 3 3 2 2 2 2 2 1 2 2 2 3 2 2 1 2 3 3 3 5 5 6 4 2 3 5 6 5 5 4 5 4 5 4 3 3 3 2
5 4 4 4 4 4 3 2 2 1 1 1 1 2 2 2 2 2 2 1 3 3 3 4 4 6 6 5 4 4 6 5 4 4 3 3 2 2 2 1 1 3 3
4 4 4 3 3 3 2 2 1 2 1 1 1 2 2 2 1 2 2 2 2 2 3 4 4 6 7 6 4 5 5 3 2 2 2 2 2 2 2 2 2 1 2
5 4 3 3 2 2 3 2 1 2 2 2 1 1 2 2 2 2 2 2 2 2 3 5 6 6 6 5 5 5 3 1 1 1 2 3 2 2 2 2 2 2 2
5 4 3 3 2 2 2 2 2 2 2 2 2 2 2 2 2 2 2 3 3 3 3 4 5 5 4 4 4 3 2 2 2 2 2 2 2 1 1 1 1 1 1
4 4 3 3 3 2 2 1 2 3 4 4 4 3 3 3 5 5 3 2 2 3 2 2 2 2 2 2 2 2 2 1 1 1 1 1 1 1 2 2 1 1 1
4 3 3 3 2 2 2 1 2 1 2 4 5 5 3 5 6 4 3 3 3 2 0 1 2 2 3 3 3 2 2 1 1 1 1 1 1 1 1 1 1 0 1
4 3 2 3 3 2 3 3 1 3 3 1 3 4 4 5 4 4 2 2 2 1 1 2 3 3 3 2 2 2 2 2 1 1 1 1 1 1 1 1 1 1 1
3 2 2 2 3 3 3 3 3 3 2 1 2 3 4 4 4 4 2 1 2 1 1 2 2 2 2 2 2 1 2 1 1 1 1 1 1 1 1 1 1 1 2
2 2 1 1 2 2 2 3 3 3 3 2 1 2 4 3 2 2 1 1 1 2 2 2 2 2 1 1 2 2 1 1 1 1 1 1 1 1 1 1 1 2 2
1 2 2 1 1 1 1 2 2 2 2 3 3 3 2 1 1 1 1 2 2 2 2 2 2 1 1 1 1 1 1 1 1 1 2 2 2 2 2 2 2 2 3
1 1 1 1 1 2 2 2 3 3 2 3 3 4 5 3 3 3 3 3 3 3 3 3 2 2 2 2 1 1 1 2 2 2 2 2 2 2 2 2 3 3 2
2 1 1 2 2 2 2 3 3 3 3 3 3 3 5 3 2 3 3 3 3 3 3 3 2 2 2 2 2 2 2 2 2 2 3 3 3 3 2 2 2 2 2
1 1 1 2 2 3 2 2 2 3 3 3 3 2 2 2 3 3 3 3 2 2 2 2 2 2 2 2 2 2 3 3 4 4 3 4 4 3 3 3 3 3 3
1 2 2 2 2 2 2 2 2 3 3 3 3 2 3 3 3 3 3 2 2 2 2 2 2 3 3 3 3 3 3 4 4 4 5 5 4 4 3 3 4 4 4
2 2 2 2 2 3 3 3 3 3 3 3 3 2 2 2 2 2 2 2 2 2 2 2 2 2 3 3 3 4 5 5 4 4 4 4 5 5 4 4 4 3 4
2 2 3 3 3 3 3 3 3 3 2 2 2 2 2 2 2 2 2 1 1 1 1 1 2 3 3 3 4 5 5 5 4 5 4 3 4 4 4 4 5 4 4
Wind_Direction
186 185 175 184 188 185 195 208 206 211 209 207 211 202 202 213 221 194 222 216 229 279 295 283 293 294 295 297 284 263 233 193 233 270 262 279 265 268 251 229 231 226 233
185 174 169 166 157 177 201 204 195 203 210 196 183 179 196 194 193 200 224 240 213 278 289 294 295 297 300 290 285 279 263 231 216 259 281 282 267 272 257 235 239 234 231
162 159 161 169 171 181 199 203 189 185 177 174 160 175 195 176 191 205 189 193 223 260 267 268 278 286 295 296 290 284 276 273 222 226 261 260 265 304 311 283 275 298 270
164 167 175 183 188 187 183 177 184 174 164 173 181 185 183 169 167 188 162 173 248 275 269 262 265 258 266 281 291 284 278 289 287 258 271 278 275 284 269 268 286 286 276
164 172 184 180 180 180 179 181 185 184 190 183 169 161 169 163 200 207 215 235 252 274 283 277 269 262 258 259 275 265 262 264 273 270 273 286 283 279 261 251 258 277 266
161 174 173 161 163 172 181 178 169 183 212 170 160 198 216 243 232 217 203 250 263 272 288 296 296 310 311 306 301 282 238 235 246 251 262 264 268 256 255 256 247 272 281
161 170 169 165 169 181 184 159 172 185 209 213 220 205 233 257 238 227 219 217 248 267 280 297 306 323 323 313 313 311 294 272 234 221 242 252 254 251 240 252 239 223 238
161 163 167 173 178 172 166 182 193 186 218 236 237 227 221 249 240 244 256 260 271 280 277 274 279 297 302 294 299 307 298 289 268 241 237 250 255 248 229 225 225 233 255
165 169 174 173 175 173 185 200 203 198 227 242 239 229 228 259 254 252 242 264 278 286 286 292 281 284 293 292 289 289 296 295 287 274 263 269 273 272 253 212 224 202 268
179 181 176 167 170 182 199 211 206 199 224 245 259 252 233 253 259 255 229 214 263 284 297 293 279 279 294 298 264 268 280 284 298 311 309 307 299 299 287 219 210 205 230
176 169 169 170 177 185 189 194 187 186 192 238 258 283 270 253 266 271 241 216 229 254 275 283 283 293 299 298 272 249 258 265 279 285 292 301 313 319 315 300 220 196 212
149 153 164 176 182 178 173 198 189 168 179 236 255 308 311 287 261 275 275 253 227 227 258 269 275 289 298 299 288 281 290 291 279 283 287 298 303 299 294 296 301 270 236
147 159 169 167 167 171 175 193 199 180 184 212 220 246 279 289 286 283 280 286 269 244 259 271 281 285 293 297 293 296 304 298 281 279 271 275 271 274 296 320 330 338 343
157 168 171 168 171 170 173 182 188 198 196 211 218 230 246 267 278 289 290 295 300 296 292 293 295 293 287 283 298 305 272 243 243 254 261 275 298 319 326 321 306 320 338
166 174 180 180 181 181 177 198 204 215 209 204 222 216 207 236 250 243 246 265 270 271 294 315 321 318 319 315 310 298 290 289 269 266 259 285 303 318 314 320 326 328 311
163 178 182 178 183 177 161 354 346 264 242 214 206 198 220 230 241 255 270 277 274 254 185 280 282 278 272 275 280 288 293 283 271 261 253 246 267 288 309 328 333 308 295
167 178 185 185 188 193 184 180 235 334 351 334 206 207 216 231 244 246 268 307 313 174 184 251 261 262 260 262 260 257 270 275 271 268 261 258 256 274 296 326 332 325 302
171 188 194 197 198 201 203 199 195 200 233 291 288 250 244 245 242 236 255 40 355 345 238 255 263 262 259 253 245 249 266 292 290 273 276 276 272 273 288 291 295 288 279
163 183 192 205 197 202 205 198 197 201 204 214 245 278 271 266 266 253 195 159 225 263 265 265 260 255 256 248 241 238 234 250 263 260 272 280 279 273 265 264 261 274 269
166 197 195 196 193 218 223 199 197 200 204 207 216 230 243 223 246 262 229 216 223 239 248 250 250 246 247 257 249 228 221 236 259 263 269 267 254 241 249 259 252 252 249
189 238 260 230 202 207 211 211 203 196 205 219 231 231 205 202 215 223 225 226 227 230 235 237 238 242 245 246 238 230 222 244 254 262 266 266 263 261 261 259 255 245 241
197 215 222 213 206 204 210 211 200 198 211 224 243 248 220 210 215 224 230 236 237 234 225 214 222 230 235 232 218 217 235 252 260 263 265 265 264 267 266 258 262 268 252
193 223 246 241 226 215 209 210 210 217 226 230 226 227 218 226 231 225 229 240 246 247 236 216 215 226 226 206 199 212 229 248 255 252 251 255 255 255 257 256 255 260 256
210 225 229 235 230 213 214 226 227 227 228 226 220 213 213 221 225 231 233 235 241 249 235 218 215 215 217 210 210 221 235 253 261 252 242 239 242 249 253 254 251 244 242
204 218 224 225 222 221 221 225 231 231 228 224 218 211 208 213 228 238 238 237 235 241 238 219 210 216 224 229 230 244 254 257 266 271 255 239 236 238 248 249 245 246 234
227 237 238 231 229 227 221 225 231 231 229 217 202 200 207 214 225 232 239 245 253 253 252 226 226 234 235 238 247 252 254 257 261 264 252 239 240 244 246 244 238 238 230
Height
1530 1531 1532 1532 1533 1533 1533 1534 1534 1534 1534 1534 1534 1534 1534 1534 1534 1534 1534 1533 1533 1532 1532 1531 1531 1530 1530 1529 1529 1528 1528 1527 1525 1524 1523 1522 1521 1520 1520 1519 1519 1519 1518
1528 1529 1529 1530 1530 1531 1531 1531 1531 1531 1531 1531 1532 1532 1532 1532 1532 1531 1531 1531 1530 1530 1529 1529 1528 1528 1527 1526 1526 1525 1524 1523 1522 1521 1520 1519 1518 1517 1517 1516 1516 1516 1515
1525 1526 1527 1528 1528 1528 1528 1528 1528 1528 1528 1528 1529 1529 1529 1529 1529 1528 1528 1528 1528 1527 1526 1525 1525 1524 1524 1523 1522 1521 1520 1520 1519 1517 1516 1516 1515 1515 1514 1513 1513 1512 1512
1523 1524 1525 1525 1526 1526 1526 1526 1526 1526 1526 1526 1526 1526 1526 1526 1526 1525 1525 1524 1524 1524 1523 1522 1522 1521 1520 1520 1519 1518 1517 1516 1515 1514 1513 1512 1512 1512 1511 1510 1509 1509 1508
1521 1521 1522 1523 1524 1524 1524 1524 1524 1524 1524 1524 1524 1524 1524 1523 1523 1523 1522 1521 1521 1520 1520 1519 1518 1517 1517 1516 1515 1514 1514 1513 1512 1511 1510 1509 1509 1508 1507 1506 1506 1505 1504
1518 1519 1520 1520 1521 1522 1522 1522 1522 1522 1522 1522 1521 1521 1521 1521 1521 1520 1519 1519 1518 1517 1517 1516 1515 1514 1513 1513 1512 1511 1510 1509 1508 1507 1506 1506 1505 1505 1504 1503 1502 1501 1500
1515 1516 1517 1518 1518 1519 1520 1520 1520 1520 1520 1520 1519 1519 1519 1518 1518 1518 1517 1516 1515 1514 1513 1513 1512 1511 1510 1509 1508 1507 1506 1506 1505 1505 1503 1502 1502 1501 1501 1500 1499 1498 1497
1513 1514 1514 1515 1516 1516 1517 1517 1517 1518 1517 1517 1516 1516 1515 1515 1515 1515 1514 1513 1512 1511 1510 1509 1508 1507 1506 1505 1504 1503 1502 1502 1501 1501 1500 1499 1499 1498 1497 1496 1495 1495 1494
1511 1512 1512 1513 1513 1514 1514 1514 1514 1514 1514 1514 1513 1513 1512 1512 1511 1511 1511 1510 1509 1508 1507 1506 1505 1504 1503 1502 1501 1499 1498 1498 1497 1497 1496 1495 1495 1494 1493 1493 1491 1490 1489
1509 1509 1510 1511 1511 1511 1511 1511 1511 1511 1511 1511 1510 1509 1509 1508 1508 1507 1507 1506 1505 1504 1504 1503 1501 1500 1499 1498 1497 1496 1494 1493 1493 1492 1492 1491 1490 1490 1489 1489 1488 1487 1486
1507 1507 1508 1508 1509 1509 1509 1509 1509 1508 1508 1507 1507 1506 1505 1505 1504 1503 1503 1502 1501 1500 1500 1498 1498 1497 1496 1495 1493 1492 1491 1490 1489 1488 1488 1487 1486 1485 1485 1485 1484 1484 1483
1504 1505 1505 1506 1506 1506 1506 1506 1506 1505 1505 1504 1503 1503 1502 1501 1500 1500 1500 1499 1498 1496 1495 1494 1493 1493 1492 1491 1490 1489 1488 1487 1486 1485 1484 1483 1482 1482 1481 1481 1480 1480 1480
1501 1501 1502 1502 1502 1503 1503 1503 1502 1502 1501 1501 1500 1499 1498 1498 1497 1497 1496 1495 1494 1492 1491 1490 1490 1489 1488 1487 1486 1485 1484 1483 1482 1481 1480 1480 1479 1478 1477 1477 1476 1476 1476
1497 1498 1498 1499 1499 1499 1500 1500 1499 1499 1499 1498 1497 1496 1495 1495 1494 1493 1493 1492 1490 1489 1488 1487 1486 1485 1484 1483 1482 1481 1481 1480 1479 1478 1477 1476 1475 1474 1474 1473 1472 1472 1471
1494 1494 1494 1495 1495 1495 1496 1496 1496 1496 1496 1495 1494 1494 1492 1491 1491 1490 1489 1488 1486 1485 1484 1483 1482 1481 1481 1480 1479 1478 1477 1476 1476 1474 1473 1472 1472 1471 1470 1470 1469 1468 1467
1490 1490 1490 1491 1492 1492 1492 1492 1492 1493 1492 1492 1491 1491 1490 1489 1488 1487 1486 1485 1483 1482 1481 1479 1479 1478 1477 1476 1475 1474 1473 1473 1472 1471 1470 1469 1468 1467 1467 1466 1466 1465 1465
1487 1488 1488 1488 1488 1488 1488 1488 1488 1489 1489 1489 1488 1488 1487 1486 1485 1484 1483 1481 1480 1479 1478 1476 1475 1475 1474 1473 1472 1471 1470 1470 1469 1468 1467 1466 1465 1464 1463 1463 1462 1462 1462
1485 1485 1485 1485 1485 1485 1485 1485 1485 1486 1486 1485 1485 1485 1484 1483 1482 1481 1480 1478 1476 1475 1474 1473 1472 1471 1471 1470 1469 1468 1467 1467 1466 1465 1464 1463 1462 1461 1461 1460 1459 1459 1459
1483 1482 1482 1482 1482 1482 1482 1482 1482 1483 1482 1482 1481 1481 1481 1480 1479 1478 1477 1475 1473 1472 1471 1470 1469 1469 1468 1467 1467 1466 1465 1464 1463 1462 1461 1460 1459 1459 1458 1457 1456 1456 1456
1480 1479 1479 1479 1478 1479 1479 1479 1479 1479 1479 1478 1478 1478 1477 1476 1475 1474 1473 1472 1471 1469 1468 1467 1466 1466 1465 1464 1463 1463 1462 1461 1460 1459 1458 1457 1456 1455 1454 1453 1453 1452 1452
1476 1476 1476 1476 1476 1476 1476 1476 1476 1476 1476 1475 1475 1475 1474 1473 1472 1471 1470 1469 1468 1467 1465 1464 1463 1463 1462 1461 1460 1459 1458 1458 1457 1456 1455 1454 1453 1452 1451 1450 1449 1449 1448
1473 1473 1473 1473 1473 1473 1473 1473 1473 1472 1472 1472 1471 1471 1470 1469 1468 1467 1466 1465 1464 1463 1462 1461 1460 1459 1458 1458 1457 1456 1455 1454 1453 1452 1451 1450 1450 1449 1447 1447 1446 1445 1445
1470 1470 1470 1470 1470 1470 1470 1469 1469 1469 1469 1468 1468 1467 1466 1465 1464 1464 1463 1462 1461 1459 1458 1457 1456 1455 1454 1453 1453 1452 1451 1450 1449 1448 1447 1446 1445 1445 1444 1443 1442 1442 1441
1467 1467 1467 1467 1467 1466 1466 1466 1466 1465 1465 1464 1464 1463 1462 1461 1460 1460 1459 1458 1457 1456 1455 1453 1452 1451 1450 1449 1449 1448 1447 1446 1445 1444 1443 1442 1441 1440 1439 1439 1438 1438 1437
1464 1464 1464 1463 1463 1463 1463 1462 1462 1462 1461 1461 1460 1459 1459 1458 1457 1456 1455 1454 1453 1452 1451 1449 1448 1447 1446 1446 1445 1444 1443 1442 1441 1439 1438 1437 1436 1435 1435 1434 1433 1433 1433
1461 1460 1460 1460 1460 1459 1459 1458 1458 1458 1457 1457 1456 1455 1455 1454 1453 1452 1452 1451 1450 1448 1447 1446 1445 1443 1442 1441 1440 1439 1438 1437 1436 1435 1433 1432 1431 1430 1430 1429 1429 1428 1428